DJT154 EGLL-ENSB

Flight info

Callsign DJT154
Flight time 4h 7m
Altitude 33000
Route BPK Q295 MATCH P144 DIGSU P5 BUZDE DCT RIGVU DCT DEXES DCT 67N005E/N0467F350 75N010E DCT INPAR
Aircraft A21N/M-SDE2E3FGHIRWXY/LB1

Departure

Time 2026-05-04 20:53
Airport London Heathrow Airport (EGLL)

Arrival

Time 2026-05-05 01:01
Airport Svalbard Airport, Longyear (ENSB)
Time Latitude Longitude Altitude Speed Heading
2026-05-04 19:57 51.47061 -0.48584 90 ft 0 kts 269°
2026-05-04 20:37 51.47061 -0.48575 78 ft 3 kts 269°
2026-05-04 20:37 51.47061 -0.48568 78 ft 0 kts 269°
2026-05-04 20:41 51.47061 -0.48559 93 ft 3 kts 269°
2026-05-04 20:41 51.47061 -0.48533 90 ft 3 kts 269°
2026-05-04 20:41 51.47061 -0.48504 93 ft 3 kts 269°
2026-05-04 20:41 51.47062 -0.48487 91 ft 0 kts 269°
2026-05-04 20:42 51.47062 -0.48466 93 ft 0 kts 269°
2026-05-04 20:42 51.47062 -0.48465 92 ft 0 kts 269°
2026-05-04 20:47 51.47062 -0.48467 93 ft 1 kts 269°
2026-05-04 20:47 51.47056 -0.48486 91 ft 3 kts 231°
2026-05-04 20:48 51.47039 -0.48499 92 ft 4 kts 190°
2026-05-04 20:48 51.47008 -0.48492 92 ft 5 kts 160°
2026-05-04 20:48 51.46967 -0.48474 90 ft 7 kts 172°
2026-05-04 20:48 51.46915 -0.48472 93 ft 8 kts 181°
2026-05-04 20:49 51.46856 -0.48473 90 ft 7 kts 181°
2026-05-04 20:49 51.46844 -0.48474 90 ft 0 kts 180°
2026-05-04 20:49 51.46823 -0.48474 90 ft 10 kts 180°
2026-05-04 20:49 51.46754 -0.48475 90 ft 11 kts 180°
2026-05-04 20:50 51.46673 -0.48474 92 ft 12 kts 178°
2026-05-04 20:50 51.46581 -0.48471 95 ft 14 kts 180°
2026-05-04 20:50 51.46501 -0.48471 93 ft 11 kts 172°
2026-05-04 20:50 51.46472 -0.48432 93 ft 5 kts 97°
2026-05-04 20:51 51.46472 -0.48408 94 ft 0 kts 88°
2026-05-04 20:51 51.46472 -0.48409 95 ft 0 kts 88°
2026-05-04 20:52 51.46474 -0.48325 96 ft 23 kts 88°
2026-05-04 20:52 51.46472 -0.47712 89 ft 91 kts 83°
2026-05-04 20:53 51.46487 -0.46373 96 ft 147 kts 88°
2026-05-04 20:53 51.46486 -0.44519 288 ft 172 kts 90°
2026-05-04 20:53 51.46467 -0.42540 833 ft 179 kts 86°
2026-05-04 20:53 51.46621 -0.40581 1627 ft 175 kts 70°
2026-05-04 20:54 51.47237 -0.38867 2157 ft 187 kts 49°
2026-05-04 20:54 51.48208 -0.37259 2531 ft 209 kts 48°
2026-05-04 20:54 51.49251 -0.35404 2757 ft 239 kts 50°
2026-05-04 20:54 51.50355 -0.33328 3222 ft 252 kts 51°
2026-05-04 20:55 51.51478 -0.31097 4050 ft 254 kts 50°
2026-05-04 20:55 51.52542 -0.28820 4808 ft 260 kts 60°
2026-05-04 20:55 51.53243 -0.26099 5473 ft 267 kts 72°
2026-05-04 20:55 51.53788 -0.23199 6018 ft 274 kts 73°
2026-05-04 20:56 51.54358 -0.20292 6036 ft 274 kts 70°
2026-05-04 20:56 51.55218 -0.17580 6002 ft 273 kts 49°
2026-05-04 20:56 51.56736 -0.15857 5881 ft 269 kts 15°
2026-05-04 20:56 51.58583 -0.15649 5966 ft 267 kts 346°
2026-05-04 20:57 51.60375 -0.16458 6028 ft 268 kts 348°
2026-05-04 20:57 51.62236 -0.16410 6030 ft 270 kts 10°
2026-05-04 20:57 51.64069 -0.15698 5978 ft 271 kts 14°
2026-05-04 20:57 51.65883 -0.14862 6027 ft 272 kts 15°
2026-05-04 20:58 51.67690 -0.13946 6052 ft 272 kts 15°
2026-05-04 20:58 51.69507 -0.13100 6082 ft 272 kts 14°
2026-05-04 20:58 51.71336 -0.12309 6036 ft 272 kts 13°
2026-05-04 20:58 51.73134 -0.11374 6077 ft 273 kts 23°
2026-05-04 20:59 51.74630 -0.09514 6008 ft 275 kts 55°
2026-05-04 20:59 51.75373 -0.06652 6208 ft 285 kts 77°
2026-05-04 20:59 51.75686 -0.03587 7154 ft 277 kts 83°
2026-05-04 20:59 51.75879 -0.00425 7839 ft 285 kts 84°
2026-05-04 21:00 51.76064 0.02816 8429 ft 293 kts 83°
2026-05-04 21:00 51.76310 0.06037 9309 ft 291 kts 83°
2026-05-04 21:00 51.76578 0.09269 10135 ft 292 kts 83°
2026-05-04 21:00 51.76853 0.12513 10877 ft 294 kts 82°
2026-05-04 21:01 51.77145 0.15884 11192 ft 313 kts 82°
2026-05-04 21:01 51.77457 0.19419 11487 ft 331 kts 82°
2026-05-04 21:01 51.77804 0.23192 11815 ft 348 kts 79°
2026-05-04 21:01 51.78633 0.26964 11939 ft 369 kts 60°
2026-05-04 21:02 51.80227 0.30323 12067 ft 387 kts 44°
2026-05-04 21:02 51.82358 0.33117 12210 ft 402 kts 36°
2026-05-04 21:02 51.84538 0.35784 12389 ft 414 kts 37°
2026-05-04 21:02 51.86822 0.38720 12855 ft 420 kts 41°
2026-05-04 21:03 51.88904 0.41924 13916 ft 410 kts 44°
2026-05-04 21:03 51.90924 0.45212 14306 ft 415 kts 45°
2026-05-04 21:03 51.92976 0.48543 14626 ft 420 kts 44°
2026-05-04 21:03 51.95065 0.51882 14976 ft 424 kts 44°
2026-05-04 21:04 51.97184 0.55244 15340 ft 428 kts 44°
2026-05-04 21:04 51.99319 0.58625 15753 ft 431 kts 44°
2026-05-04 21:04 52.01583 0.61825 16113 ft 433 kts 35°
2026-05-04 21:04 52.04216 0.64216 16431 ft 435 kts 21°
2026-05-04 21:05 52.07098 0.65721 16764 ft 437 kts 15°
2026-05-04 21:05 52.10038 0.67020 17102 ft 439 kts 14°
2026-05-04 21:05 52.13000 0.68326 17435 ft 442 kts 14°
2026-05-04 21:05 52.15975 0.69661 17758 ft 445 kts 15°
2026-05-04 21:06 52.18921 0.71005 18083 ft 447 kts 15°
2026-05-04 21:06 52.21925 0.72376 18403 ft 450 kts 15°
2026-05-04 21:06 52.24989 0.73773 18691 ft 452 kts 15°
2026-05-04 21:06 52.27982 0.75143 18978 ft 454 kts 15°
2026-05-04 21:07 52.31023 0.76550 19274 ft 456 kts 14°
2026-05-04 21:07 52.34084 0.77980 19572 ft 459 kts 14°
2026-05-04 21:07 52.37178 0.79309 19877 ft 460 kts 13°
2026-05-04 21:07 52.40205 0.80562 20174 ft 462 kts 12°
2026-05-04 21:08 52.43332 0.81845 20461 ft 464 kts 12°
2026-05-04 21:08 52.46474 0.83126 20758 ft 466 kts 12°
2026-05-04 21:08 52.49550 0.84387 21081 ft 469 kts 12°
2026-05-04 21:08 52.52819 0.85739 21465 ft 471 kts 12°
2026-05-04 21:09 52.56003 0.87063 21859 ft 473 kts 12°
2026-05-04 21:09 52.59205 0.88394 22196 ft 475 kts 12°
2026-05-04 21:09 52.62425 0.89734 22515 ft 478 kts 12°
2026-05-04 21:09 52.65502 0.91017 22819 ft 480 kts 12°
2026-05-04 21:10 52.68763 0.92388 23136 ft 483 kts 12°
2026-05-04 21:10 52.72025 0.93759 23454 ft 485 kts 12°
2026-05-04 21:10 52.75319 0.95139 23739 ft 487 kts 12°
2026-05-04 21:10 52.78518 0.96487 24030 ft 489 kts 11°
2026-05-04 21:11 52.81812 0.97876 24398 ft 488 kts 11°
2026-05-04 21:11 52.85040 0.99233 24770 ft 487 kts 11°
2026-05-04 21:11 52.88360 1.00634 25169 ft 486 kts 11°
2026-05-04 21:11 52.91611 1.02020 25545 ft 485 kts 12°
2026-05-04 21:12 52.94891 1.03415 25925 ft 485 kts 12°
2026-05-04 21:12 52.98155 1.04804 26289 ft 484 kts 12°
2026-05-04 21:12 53.01418 1.06188 26684 ft 483 kts 12°
2026-05-04 21:12 53.04674 1.07561 27102 ft 481 kts 12°
2026-05-04 21:13 53.07908 1.08932 27512 ft 479 kts 12°
2026-05-04 21:13 53.11133 1.10312 27898 ft 478 kts 12°
2026-05-04 21:13 53.14349 1.11690 28271 ft 477 kts 12°
2026-05-04 21:13 53.17562 1.13069 28633 ft 476 kts 12°
2026-05-04 21:14 53.20761 1.14446 28986 ft 475 kts 12°
2026-05-04 21:14 53.23959 1.15821 29346 ft 474 kts 13°
2026-05-04 21:14 53.27146 1.17193 29820 ft 470 kts 14°
2026-05-04 21:14 53.30258 1.18532 30293 ft 466 kts 14°
2026-05-04 21:15 53.33380 1.19873 30674 ft 462 kts 14°
2026-05-04 21:15 53.36493 1.21212 30977 ft 461 kts 14°
2026-05-04 21:15 53.39596 1.22553 31285 ft 460 kts 14°
2026-05-04 21:15 53.42698 1.23900 31561 ft 459 kts 14°
2026-05-04 21:16 53.45781 1.25248 31859 ft 458 kts 14°
2026-05-04 21:16 53.48859 1.26588 32144 ft 456 kts 14°
2026-05-04 21:16 53.51928 1.27923 32420 ft 455 kts 14°
2026-05-04 21:16 53.54996 1.29260 32704 ft 454 kts 14°
2026-05-04 21:17 53.58050 1.30601 32969 ft 453 kts 14°
2026-05-04 21:17 53.61104 1.31937 33098 ft 453 kts 14°
2026-05-04 21:17 53.67188 1.34611 33084 ft 452 kts 14°
2026-05-04 21:18 53.73269 1.37292 33072 ft 452 kts 14°
2026-05-04 21:18 53.79403 1.39109 33068 ft 447 kts
2026-05-04 21:19 53.85608 1.39935 33064 ft 447 kts
2026-05-04 21:19 53.91812 1.40759 33065 ft 447 kts
2026-05-04 21:20 53.97976 1.41578 33063 ft 447 kts
2026-05-04 21:20 54.04180 1.42427 33062 ft 447 kts
2026-05-04 21:21 54.10389 1.43280 33062 ft 447 kts
2026-05-04 21:21 54.16602 1.44129 33062 ft 447 kts
2026-05-04 21:22 54.22807 1.44991 33059 ft 447 kts
2026-05-04 21:22 54.29014 1.45844 33059 ft 447 kts
2026-05-04 21:23 54.35224 1.46705 33058 ft 447 kts
2026-05-04 21:23 54.41433 1.47568 33060 ft 447 kts
2026-05-04 21:24 54.47641 1.48426 33060 ft 448 kts
2026-05-04 21:24 54.53822 1.49274 33061 ft 449 kts
2026-05-04 21:25 54.60053 1.50132 33056 ft 449 kts
2026-05-04 21:25 54.66290 1.51026 33059 ft 449 kts
2026-05-04 21:26 54.71099 1.51708 33057 ft 449 kts
2026-05-04 21:26 54.71970 1.51829 33057 ft 449 kts
2026-05-04 21:27 54.78172 1.52686 33056 ft 450 kts
2026-05-04 21:27 54.84423 1.53564 33054 ft 450 kts
2026-05-04 21:28 54.90670 1.54460 33051 ft 450 kts
2026-05-04 21:28 54.96918 1.55346 33050 ft 450 kts
2026-05-04 21:29 55.02110 1.56084 33059 ft 451 kts
2026-05-04 21:29 55.08371 1.56980 33050 ft 451 kts
2026-05-04 21:30 55.14636 1.57861 33049 ft 451 kts
2026-05-04 21:30 55.21949 1.58899 33046 ft 451 kts
2026-05-04 21:31 55.30290 1.60139 33050 ft 453 kts
2026-05-04 21:32 55.36577 1.61101 33043 ft 453 kts
2026-05-04 21:32 55.42819 1.61981 33042 ft 453 kts
2026-05-04 21:33 55.49100 1.62854 33042 ft 453 kts
2026-05-04 21:33 55.55387 1.63817 33054 ft 454 kts
2026-05-04 21:34 55.61687 1.64718 33040 ft 454 kts
2026-05-04 21:34 55.67987 1.65644 33036 ft 454 kts
2026-05-04 21:35 55.74286 1.66572 33042 ft 454 kts
2026-05-04 21:35 55.80585 1.67498 33047 ft 455 kts 360°
2026-05-04 21:36 55.86911 1.68402 33038 ft 456 kts 360°
2026-05-04 21:36 55.93195 1.69326 33033 ft 456 kts
2026-05-04 21:37 55.99526 1.70296 33029 ft 456 kts
2026-05-04 21:37 56.05849 1.71240 33030 ft 456 kts 360°
2026-05-04 21:38 56.12178 1.72175 33019 ft 456 kts
2026-05-04 21:38 56.18506 1.73126 33020 ft 456 kts
2026-05-04 21:39 56.24838 1.74097 33026 ft 456 kts
2026-05-04 21:39 56.31175 1.75056 33041 ft 457 kts 359°
2026-05-04 21:40 56.37465 1.76010 33026 ft 457 kts 360°
2026-05-04 21:40 56.43841 1.76992 33017 ft 457 kts 360°
2026-05-04 21:41 56.50137 1.77962 33021 ft 457 kts 360°
2026-05-04 21:41 56.56475 1.78929 33055 ft 457 kts 359°
2026-05-04 21:42 56.62811 1.79911 33021 ft 457 kts 359°
2026-05-04 21:42 56.69161 1.80902 33016 ft 457 kts 359°
2026-05-04 21:43 56.75506 1.81889 33018 ft 457 kts 359°
2026-05-04 21:43 56.81852 1.82873 33012 ft 457 kts 359°
2026-05-04 21:44 56.88190 1.83863 33019 ft 457 kts 359°
2026-05-04 21:44 56.94535 1.84858 33012 ft 457 kts 359°
2026-05-04 21:45 57.00875 1.85869 33010 ft 457 kts 359°
2026-05-04 21:45 57.07217 1.86868 33008 ft 457 kts 359°
2026-05-04 21:46 57.13514 1.87877 33032 ft 457 kts 358°
2026-05-04 21:46 57.19862 1.88891 33011 ft 457 kts 358°
2026-05-04 21:47 57.26203 1.89919 33008 ft 457 kts 358°
2026-05-04 21:47 57.32547 1.90914 33007 ft 457 kts 358°
2026-05-04 21:48 57.38887 1.91932 33034 ft 458 kts 358°
2026-05-04 21:48 57.45243 1.92958 33011 ft 458 kts 358°
2026-05-04 21:49 57.51608 1.93990 33010 ft 459 kts 358°
2026-05-04 21:49 57.57960 1.95036 33009 ft 459 kts 358°
2026-05-04 21:50 57.64330 1.96068 33066 ft 458 kts 358°
2026-05-04 21:50 57.70673 1.97111 33030 ft 457 kts 358°
2026-05-04 21:51 57.76980 1.98146 33017 ft 458 kts 358°
2026-05-04 21:51 57.83329 1.99211 33020 ft 458 kts 358°
2026-05-04 21:52 57.89674 2.00259 33020 ft 458 kts 358°
2026-05-04 21:52 57.95999 2.01296 33044 ft 455 kts 358°
2026-05-04 21:53 58.02313 2.02342 33021 ft 455 kts 358°
2026-05-04 21:53 58.08625 2.03403 33018 ft 455 kts 358°
2026-05-04 21:54 58.14943 2.04459 33020 ft 455 kts 358°
2026-05-04 21:54 58.21223 2.05531 33050 ft 455 kts 358°
2026-05-04 21:55 58.27536 2.06603 33032 ft 455 kts 358°
2026-05-04 21:55 58.33841 2.07658 33019 ft 455 kts 358°
2026-05-04 21:56 58.40156 2.08744 33013 ft 455 kts 358°
2026-05-04 21:56 58.46463 2.09819 33082 ft 455 kts 358°
2026-05-04 21:57 58.52773 2.10907 33036 ft 455 kts 357°
2026-05-04 21:57 58.59081 2.11994 33025 ft 455 kts 357°
2026-05-04 21:58 58.65396 2.13086 33017 ft 455 kts 357°
2026-05-04 21:58 58.71711 2.14175 33019 ft 455 kts 357°
2026-05-04 21:59 58.78016 2.15263 33017 ft 455 kts 358°
2026-05-04 21:59 58.84293 2.17068 33021 ft 459 kts
2026-05-04 22:00 58.90605 2.19046 33023 ft 459 kts
2026-05-04 22:00 58.96915 2.20997 33018 ft 459 kts
2026-05-04 22:01 59.03228 2.22997 33046 ft 460 kts
2026-05-04 22:01 59.09538 2.24843 33022 ft 458 kts
2026-05-04 22:02 59.15840 2.26712 33016 ft 459 kts
2026-05-04 22:02 59.22146 2.28663 33015 ft 459 kts
2026-05-04 22:03 59.28457 2.30629 33012 ft 459 kts
2026-05-04 22:03 59.34757 2.32604 33031 ft 458 kts
2026-05-04 22:04 59.41051 2.34585 33007 ft 458 kts
2026-05-04 22:04 59.47300 2.36559 33008 ft 458 kts
2026-05-04 22:05 59.53593 2.38552 33007 ft 458 kts
2026-05-04 22:05 59.59883 2.40557 33039 ft 457 kts
2026-05-04 22:06 59.66155 2.42570 33012 ft 456 kts
2026-05-04 22:06 59.72430 2.44597 33012 ft 456 kts
2026-05-04 22:07 59.78694 2.46613 33012 ft 456 kts
2026-05-04 22:07 59.84962 2.48634 33004 ft 456 kts
2026-05-04 22:08 59.91223 2.50657 33042 ft 455 kts 360°
2026-05-04 22:08 59.97444 2.52675 33010 ft 456 kts 360°
2026-05-04 22:09 60.03707 2.54678 33004 ft 456 kts 360°
2026-05-04 22:09 60.09977 2.56721 33004 ft 456 kts
2026-05-04 22:10 60.16229 2.58777 33047 ft 456 kts 360°
2026-05-04 22:10 60.22490 2.60845 33002 ft 455 kts 360°
2026-05-04 22:11 60.28743 2.62973 32986 ft 456 kts
2026-05-04 22:11 60.34999 2.65091 32984 ft 456 kts 360°
2026-05-04 22:12 60.41266 2.67120 32980 ft 455 kts 360°
2026-05-04 22:12 60.47529 2.69196 33029 ft 456 kts 360°
2026-05-04 22:13 60.53824 2.71307 32971 ft 461 kts 360°
2026-05-04 22:13 60.60124 2.73439 32968 ft 462 kts 360°
2026-05-04 22:14 60.66475 2.75591 32968 ft 463 kts
2026-05-04 22:14 60.72824 2.77793 33061 ft 463 kts
2026-05-04 22:15 60.79178 2.79995 32992 ft 466 kts
2026-05-04 22:15 60.85576 2.82190 32966 ft 466 kts 360°
2026-05-04 22:16 60.91983 2.84346 32977 ft 466 kts 360°
2026-05-04 22:16 60.98382 2.86556 32965 ft 466 kts
2026-05-04 22:17 61.03706 2.88446 33029 ft 466 kts
2026-05-04 22:17 61.10115 2.90647 32980 ft 468 kts
2026-05-04 22:18 61.16541 2.92890 32976 ft 468 kts
2026-05-04 22:18 61.22957 2.95144 32969 ft 468 kts
2026-05-04 22:19 61.29387 2.97438 32968 ft 468 kts
2026-05-04 22:19 61.35810 2.99767 32993 ft 469 kts
2026-05-04 22:20 61.42242 3.02074 32969 ft 469 kts
2026-05-04 22:20 61.48641 3.04309 32962 ft 469 kts
2026-05-04 22:21 61.55091 3.06616 32956 ft 469 kts
2026-05-04 22:21 61.61530 3.08919 32962 ft 470 kts
2026-05-04 22:22 61.67969 3.11260 32940 ft 470 kts
2026-05-04 22:22 61.74403 3.13604 32943 ft 470 kts
2026-05-04 22:23 61.80845 3.15955 32939 ft 469 kts
2026-05-04 22:23 61.87284 3.18304 32937 ft 469 kts
2026-05-04 22:24 61.93722 3.20670 32948 ft 470 kts
2026-05-04 22:24 62.00169 3.23058 32944 ft 470 kts
2026-05-04 22:25 62.06575 3.25437 32941 ft 470 kts
2026-05-04 22:25 62.13028 3.27840 32933 ft 470 kts
2026-05-04 22:26 62.19476 3.30254 32991 ft 470 kts
2026-05-04 22:26 62.25922 3.32684 32946 ft 470 kts
2026-05-04 22:27 62.32377 3.35129 32930 ft 470 kts
2026-05-04 22:27 62.38825 3.37579 32941 ft 470 kts
2026-05-04 22:28 62.45272 3.40040 32923 ft 470 kts
2026-05-04 22:28 62.51720 3.42502 32952 ft 470 kts
2026-05-04 22:29 62.58113 3.44943 32924 ft 469 kts
2026-05-04 22:29 62.64535 3.47432 32914 ft 469 kts
2026-05-04 22:30 62.70963 3.49937 32912 ft 469 kts
2026-05-04 22:30 62.77391 3.52438 32906 ft 469 kts
2026-05-04 22:31 62.83818 3.54959 32923 ft 468 kts
2026-05-04 22:31 62.90231 3.57501 32903 ft 468 kts
2026-05-04 22:32 62.96362 3.59922 32884 ft 468 kts
2026-05-04 22:32 63.02895 3.62486 32888 ft 468 kts
2026-05-04 22:33 63.09381 3.64926 32922 ft 467 kts
2026-05-04 22:33 63.15813 3.66932 32893 ft 466 kts
2026-05-04 22:34 63.22239 3.68864 32876 ft 466 kts
2026-05-04 22:34 63.28667 3.70836 32873 ft 466 kts
2026-05-04 22:35 63.35095 3.72826 32871 ft 466 kts
2026-05-04 22:35 63.41480 3.74793 32891 ft 466 kts
2026-05-04 22:36 63.47900 3.76774 32866 ft 466 kts
2026-05-04 22:36 63.54317 3.78785 32861 ft 466 kts
2026-05-04 22:37 63.60735 3.80791 32854 ft 466 kts
2026-05-04 22:37 63.67153 3.82825 32855 ft 466 kts
2026-05-04 22:38 63.73572 3.84830 32871 ft 465 kts
2026-05-04 22:38 63.79982 3.86858 32855 ft 465 kts
2026-05-04 22:39 63.86387 3.88927 32842 ft 465 kts
2026-05-04 22:39 63.92807 3.90960 32843 ft 466 kts
2026-05-04 22:40 63.99231 3.93037 32837 ft 466 kts
2026-05-04 22:40 64.05659 3.95115 32847 ft 466 kts
2026-05-04 22:41 64.12075 3.97210 32831 ft 466 kts
2026-05-04 22:41 64.18490 3.99306 32826 ft 466 kts
2026-05-04 22:42 64.24862 4.01406 32826 ft 466 kts
2026-05-04 22:42 64.31318 4.03529 32841 ft 466 kts
2026-05-04 22:43 64.37685 4.05626 32822 ft 465 kts
2026-05-04 22:43 64.44091 4.07752 32813 ft 465 kts
2026-05-04 22:44 64.50500 4.09911 32809 ft 465 kts
2026-05-04 22:44 64.56905 4.12076 32810 ft 465 kts
2026-05-04 22:45 64.63313 4.14223 32808 ft 465 kts
2026-05-04 22:45 64.72487 4.17287 32803 ft 465 kts
2026-05-04 22:46 64.79014 4.19499 32806 ft 465 kts
2026-05-04 22:46 64.85385 4.21681 32804 ft 465 kts
2026-05-04 22:47 64.91783 4.23910 32817 ft 465 kts
2026-05-04 22:47 64.98201 4.26129 32790 ft 466 kts
2026-05-04 22:48 65.04623 4.28330 32788 ft 466 kts
2026-05-04 22:48 65.11053 4.30595 32781 ft 467 kts
2026-05-04 22:49 65.17472 4.32901 32776 ft 467 kts
2026-05-04 22:49 65.23901 4.35134 32798 ft 467 kts
2026-05-04 22:50 65.30323 4.37389 32775 ft 466 kts
2026-05-04 22:50 65.36739 4.39649 32771 ft 466 kts
2026-05-04 22:51 65.43167 4.41972 32768 ft 466 kts
2026-05-04 22:51 65.49547 4.44248 32767 ft 466 kts
2026-05-04 22:52 65.55967 4.46609 32778 ft 466 kts
2026-05-04 22:52 65.62380 4.48944 32763 ft 466 kts
2026-05-04 22:53 65.68791 4.51308 32756 ft 466 kts
2026-05-04 22:53 65.75205 4.53625 32754 ft 466 kts
2026-05-04 22:54 65.81615 4.56033 32749 ft 466 kts
2026-05-04 22:54 65.88013 4.58412 32761 ft 465 kts
2026-05-04 22:55 65.94417 4.60789 32746 ft 465 kts
2026-05-04 22:55 66.00813 4.63168 32744 ft 465 kts
2026-05-04 22:56 66.07209 4.65542 32738 ft 465 kts
2026-05-04 22:56 66.13561 4.67969 32738 ft 465 kts
2026-05-04 22:57 66.19951 4.70422 32744 ft 464 kts
2026-05-04 22:57 66.26342 4.72853 32736 ft 464 kts
2026-05-04 22:58 66.32727 4.75304 32730 ft 464 kts
2026-05-04 22:58 66.39108 4.77806 32728 ft 464 kts
2026-05-04 22:59 66.45490 4.80289 32725 ft 464 kts
2026-05-04 22:59 66.51878 4.82774 32734 ft 464 kts
2026-05-04 23:00 66.58251 4.85263 32724 ft 463 kts
2026-05-04 23:00 66.64623 4.87790 32722 ft 463 kts
2026-05-04 23:01 66.70956 4.90240 32717 ft 463 kts
2026-05-04 23:01 66.77330 4.92754 32717 ft 464 kts
2026-05-04 23:02 66.83697 4.95329 32722 ft 463 kts
2026-05-04 23:02 66.90054 4.97891 32709 ft 462 kts
2026-05-04 23:03 66.96411 5.00424 32717 ft 462 kts
2026-05-04 23:03 67.02763 5.03041 32712 ft 462 kts
2026-05-04 23:04 67.09131 5.05624 32711 ft 462 kts
2026-05-04 23:04 67.14409 5.07790 32726 ft 462 kts
2026-05-04 23:05 67.20742 5.10422 32708 ft 462 kts
2026-05-04 23:05 67.27086 5.13074 32705 ft 461 kts
2026-05-04 23:06 67.33421 5.15743 32696 ft 461 kts
2026-05-04 23:06 67.39763 5.18407 32702 ft 461 kts
2026-05-04 23:07 67.46101 5.21071 32699 ft 461 kts
2026-05-04 23:07 67.52426 5.23763 32693 ft 460 kts
2026-05-04 23:08 67.58741 5.26437 32693 ft 460 kts
2026-05-04 23:08 67.65063 5.29158 32685 ft 460 kts
2026-05-04 23:09 67.71378 5.31865 32693 ft 460 kts
2026-05-04 23:09 67.77697 5.34592 32685 ft 460 kts
2026-05-04 23:10 67.84008 5.37402 32686 ft 459 kts
2026-05-04 23:10 67.90283 5.40175 32685 ft 460 kts
2026-05-04 23:11 67.96595 5.43007 32684 ft 460 kts
2026-05-04 23:11 68.02914 5.45813 32691 ft 460 kts
2026-05-04 23:12 68.09226 5.48614 32675 ft 460 kts
2026-05-04 23:12 68.15514 5.51518 32685 ft 459 kts
2026-05-04 23:13 68.21826 5.54263 32679 ft 459 kts
2026-05-04 23:13 68.28130 5.57045 32682 ft 458 kts
2026-05-04 23:14 68.34394 5.59927 32677 ft 459 kts
2026-05-04 23:14 68.40698 5.62863 32677 ft 459 kts
2026-05-04 23:15 68.46993 5.65763 32681 ft 458 kts
2026-05-04 23:15 68.53275 5.68619 32674 ft 458 kts
2026-05-04 23:16 68.59556 5.71554 32673 ft 457 kts
2026-05-04 23:16 68.65839 5.74505 32667 ft 458 kts
2026-05-04 23:17 68.72116 5.77463 32672 ft 456 kts
2026-05-04 23:17 68.78353 5.80397 32673 ft 457 kts
2026-05-04 23:18 68.84612 5.83427 32672 ft 457 kts
2026-05-04 23:18 68.90871 5.86441 32671 ft 458 kts
2026-05-04 23:19 68.97130 5.89404 32671 ft 457 kts
2026-05-04 23:19 69.03391 5.92455 32670 ft 456 kts
2026-05-04 23:20 69.09652 5.95508 32667 ft 456 kts 10°
2026-05-04 23:20 69.15910 5.98593 32665 ft 455 kts 10°
2026-05-04 23:21 69.22158 6.01697 32667 ft 456 kts 10°
2026-05-04 23:21 69.28409 6.04784 32668 ft 456 kts 10°
2026-05-04 23:22 69.34659 6.07964 32669 ft 457 kts 10°
2026-05-04 23:22 69.40872 6.11078 32668 ft 456 kts 10°
2026-05-04 23:23 69.47104 6.14196 32660 ft 454 kts 10°
2026-05-04 23:23 69.53335 6.17353 32661 ft 453 kts 10°
2026-05-04 23:24 69.59567 6.20543 32661 ft 454 kts 10°
2026-05-04 23:24 69.65785 6.23765 32655 ft 455 kts 10°
2026-05-04 23:25 69.72008 6.26982 32657 ft 455 kts 10°
2026-05-04 23:25 69.78235 6.30222 32659 ft 455 kts 11°
2026-05-04 23:26 69.84442 6.33521 32662 ft 453 kts 10°
2026-05-04 23:26 69.90613 6.36763 32657 ft 453 kts 10°
2026-05-04 23:27 69.96837 6.40067 32667 ft 453 kts 11°
2026-05-04 23:27 70.03055 6.43387 32666 ft 455 kts 11°
2026-05-04 23:28 70.09273 6.46679 32663 ft 455 kts 10°
2026-05-04 23:28 70.15487 6.50060 32664 ft 455 kts 11°
2026-05-04 23:29 70.21712 6.53421 32663 ft 455 kts 11°
2026-05-04 23:29 70.27931 6.56828 32664 ft 454 kts 11°
2026-05-04 23:30 70.34151 6.60254 32665 ft 453 kts 11°
2026-05-04 23:30 70.40366 6.63710 32666 ft 454 kts 11°
2026-05-04 23:31 70.46573 6.67131 32669 ft 454 kts 11°
2026-05-04 23:31 70.52780 6.70637 32670 ft 454 kts 11°
2026-05-04 23:32 70.58948 6.74113 32670 ft 454 kts 11°
2026-05-04 23:32 70.65152 6.77654 32670 ft 453 kts 11°
2026-05-04 23:33 70.71352 6.81156 32669 ft 453 kts 11°
2026-05-04 23:33 70.77556 6.84733 32671 ft 452 kts 12°
2026-05-04 23:34 70.83746 6.88345 32673 ft 453 kts 11°
2026-05-04 23:34 70.89933 6.91928 32676 ft 453 kts 12°
2026-05-04 23:35 70.96128 6.95575 32670 ft 453 kts 11°
2026-05-04 23:35 71.02270 6.99174 32675 ft 452 kts 11°
2026-05-04 23:36 71.08459 7.02828 32675 ft 453 kts 12°
2026-05-04 23:36 71.14648 7.06542 32677 ft 452 kts 12°
2026-05-04 23:37 71.20831 7.10236 32684 ft 452 kts 12°
2026-05-04 23:37 71.27010 7.13958 32681 ft 452 kts 12°
2026-05-04 23:38 71.33195 7.17714 32679 ft 453 kts 12°
2026-05-04 23:38 71.39377 7.21506 32679 ft 452 kts 12°
2026-05-04 23:39 71.45557 7.25302 32685 ft 451 kts 12°
2026-05-04 23:39 71.51683 7.29108 32691 ft 451 kts 12°
2026-05-04 23:40 71.57852 7.32962 32700 ft 451 kts 12°
2026-05-04 23:40 71.64018 7.36839 32697 ft 452 kts 12°
2026-05-04 23:41 71.70185 7.40741 32690 ft 452 kts 12°
2026-05-04 23:41 71.76347 7.44652 32692 ft 452 kts 12°
2026-05-04 23:42 71.82487 7.48595 32697 ft 450 kts 13°
2026-05-04 23:42 71.88633 7.52562 32690 ft 449 kts 12°
2026-05-04 23:43 71.94733 7.56535 32693 ft 450 kts 13°
2026-05-04 23:43 72.00863 7.60594 32709 ft 450 kts 13°
2026-05-04 23:44 72.07000 7.64634 32698 ft 451 kts 12°
2026-05-04 23:44 72.13125 7.68705 32701 ft 447 kts 13°
2026-05-04 23:45 72.19211 7.72783 32720 ft 444 kts 13°
2026-05-04 23:45 72.25291 7.76807 32735 ft 443 kts 13°
2026-05-04 23:46 72.31361 7.81032 32740 ft 444 kts 14°
2026-05-04 23:46 72.37415 7.85156 32739 ft 446 kts 13°
2026-05-04 23:47 72.43469 7.89308 32749 ft 446 kts 13°
2026-05-04 23:47 72.49527 7.93505 32741 ft 445 kts 13°
2026-05-04 23:48 72.55601 7.97634 32761 ft 445 kts 14°
2026-05-04 23:48 72.61651 8.02321 32762 ft 442 kts 16°
2026-05-04 23:49 72.67603 8.07470 32780 ft 445 kts 17°
2026-05-04 23:49 72.73589 8.12648 32780 ft 445 kts 16°
2026-05-04 23:50 72.79577 8.17845 32775 ft 446 kts 17°
2026-05-04 23:50 72.85566 8.23078 32785 ft 446 kts 16°
2026-05-04 23:51 72.91551 8.28357 32792 ft 443 kts 17°
2026-05-04 23:51 72.96533 8.32765 32807 ft 444 kts 17°
2026-05-04 23:52 73.02524 8.38109 32810 ft 444 kts 17°
2026-05-04 23:52 73.08494 8.43468 32820 ft 445 kts 16°
2026-05-04 23:53 73.14468 8.48875 32810 ft 446 kts 17°
2026-05-04 23:53 73.20450 8.54323 32826 ft 445 kts 16°
2026-05-04 23:54 73.26423 8.59802 32831 ft 443 kts 17°
2026-05-04 23:54 73.32399 8.65319 32832 ft 442 kts 17°
2026-05-04 23:55 73.38328 8.70847 32841 ft 444 kts 17°
2026-05-04 23:56 73.47273 8.79239 32831 ft 443 kts 17°
2026-05-04 23:56 73.53228 8.84922 32849 ft 441 kts 17°
2026-05-04 23:57 73.59192 8.90586 32848 ft 443 kts 17°
2026-05-04 23:57 73.65151 8.96309 32862 ft 444 kts 17°
2026-05-04 23:58 73.71097 9.02069 32861 ft 445 kts 17°
2026-05-04 23:58 73.77041 9.07880 32865 ft 444 kts 17°
2026-05-04 23:59 73.83004 9.13737 32862 ft 444 kts 17°
2026-05-04 23:59 73.88966 9.19639 32884 ft 442 kts 17°
2026-05-05 00:00 73.94919 9.25582 32884 ft 444 kts 18°
2026-05-05 00:00 74.00866 9.31556 32886 ft 444 kts 18°
2026-05-05 00:01 74.06812 9.37582 32894 ft 445 kts 18°
2026-05-05 00:01 74.12749 9.43640 32895 ft 443 kts 17°
2026-05-05 00:02 74.18644 9.49709 32902 ft 443 kts 18°
2026-05-05 00:02 74.24598 9.55870 32905 ft 443 kts 17°
2026-05-05 00:03 74.30552 9.62089 32917 ft 443 kts 18°
2026-05-05 00:03 74.36496 9.68358 32916 ft 445 kts 18°
2026-05-05 00:04 74.42423 9.74699 32915 ft 445 kts 18°
2026-05-05 00:04 74.48383 9.81056 32924 ft 447 kts 18°
2026-05-05 00:05 74.54326 9.87443 32925 ft 444 kts 18°
2026-05-05 00:05 74.60265 9.93882 32938 ft 443 kts 18°
2026-05-05 00:06 74.66206 10.00389 32939 ft 442 kts 18°
2026-05-05 00:06 74.72106 10.06915 32940 ft 444 kts 19°
2026-05-05 00:07 74.78035 10.13484 32939 ft 444 kts 18°
2026-05-05 00:07 74.83960 10.20148 32934 ft 445 kts 18°
2026-05-05 00:08 74.89883 10.26822 32937 ft 444 kts 18°
2026-05-05 00:08 74.95798 10.33560 32942 ft 443 kts 19°
2026-05-05 00:09 75.01711 10.40381 32960 ft 441 kts 19°
2026-05-05 00:09 75.07609 10.47261 32957 ft 443 kts 19°
2026-05-05 00:10 75.13481 10.54124 32961 ft 444 kts 18°
2026-05-05 00:10 75.19394 10.61047 32952 ft 445 kts 19°
2026-05-05 00:11 75.25280 10.67975 32972 ft 442 kts 18°
2026-05-05 00:11 75.31148 10.74985 32974 ft 440 kts 19°
2026-05-05 00:12 75.37017 10.82160 32982 ft 440 kts 19°
2026-05-05 00:12 75.42895 10.89293 32994 ft 440 kts 19°
2026-05-05 00:13 75.48757 10.96493 32983 ft 442 kts 19°
2026-05-05 00:13 75.54630 11.03739 32991 ft 443 kts 19°
2026-05-05 00:14 75.60497 11.11051 32999 ft 442 kts 18°
2026-05-05 00:14 75.66310 11.18381 33001 ft 439 kts 19°
2026-05-05 00:15 75.72158 11.25780 33014 ft 438 kts 19°
2026-05-05 00:15 75.78011 11.33239 33015 ft 440 kts 19°
2026-05-05 00:16 75.83857 11.40736 33026 ft 441 kts 19°
2026-05-05 00:16 75.89698 11.48325 33022 ft 441 kts 19°
2026-05-05 00:17 75.95531 11.55960 33031 ft 441 kts 18°
2026-05-05 00:17 76.01336 11.63614 33036 ft 440 kts 19°
2026-05-05 00:18 76.07181 11.71411 33034 ft 439 kts 19°
2026-05-05 00:18 76.13021 11.79246 33049 ft 440 kts 19°
2026-05-05 00:19 76.18855 11.87139 33043 ft 442 kts 19°
2026-05-05 00:19 76.24688 11.95136 33049 ft 444 kts 19°
2026-05-05 00:20 76.30527 12.03203 33047 ft 441 kts 19°
2026-05-05 00:20 76.36359 12.11268 33056 ft 440 kts 19°
2026-05-05 00:21 76.42181 12.19469 33055 ft 439 kts 19°
2026-05-05 00:21 76.47969 12.27684 33057 ft 441 kts 19°
2026-05-05 00:22 76.53791 12.35963 33067 ft 441 kts 19°
2026-05-05 00:22 76.59610 12.44367 33064 ft 443 kts 19°
2026-05-05 00:23 76.65436 12.52859 33076 ft 443 kts 19°
2026-05-05 00:23 76.71271 12.61407 33075 ft 441 kts 19°
2026-05-05 00:23 76.74149 12.65615 32536 ft 435 kts 19°
2026-05-05 00:24 76.77051 12.69890 31353 ft 443 kts 19°
2026-05-05 00:24 76.79976 12.74252 30326 ft 446 kts 19°
2026-05-05 00:24 76.82903 12.78639 29456 ft 442 kts 19°
2026-05-05 00:24 76.85768 12.82957 28347 ft 442 kts 19°
2026-05-05 00:25 76.88733 12.87448 27090 ft 445 kts 19°
2026-05-05 00:25 76.91658 12.91901 25994 ft 444 kts 19°
2026-05-05 00:25 76.94548 12.96307 24829 ft 446 kts 19°
2026-05-05 00:25 76.97484 13.00833 23820 ft 446 kts 19°
2026-05-05 00:26 77.00395 13.05316 22895 ft 441 kts 19°
2026-05-05 00:26 77.03267 13.09748 22265 ft 429 kts 19°
2026-05-05 00:26 77.06069 13.14111 21873 ft 426 kts 19°
2026-05-05 00:26 77.08865 13.18468 21541 ft 424 kts 19°
2026-05-05 00:27 77.11622 13.22799 21106 ft 416 kts 19°
2026-05-05 00:27 77.14331 13.27074 20562 ft 408 kts 19°
2026-05-05 00:27 77.16988 13.31282 20016 ft 401 kts 20°
2026-05-05 00:27 77.19601 13.35433 19489 ft 394 kts 20°
2026-05-05 00:28 77.22165 13.39530 18997 ft 388 kts 20°
2026-05-05 00:28 77.24693 13.43591 18497 ft 383 kts 20°
2026-05-05 00:28 77.27191 13.47615 17877 ft 380 kts 20°
2026-05-05 00:28 77.29665 13.51634 17302 ft 378 kts 20°
2026-05-05 00:29 77.32086 13.55565 16869 ft 385 kts 20°
2026-05-05 00:29 77.34583 13.59619 16407 ft 378 kts 20°
2026-05-05 00:29 77.37040 13.63609 15943 ft 371 kts 20°
2026-05-05 00:29 77.39451 13.67572 15487 ft 366 kts 21°
2026-05-05 00:30 77.41832 13.71526 15034 ft 361 kts 21°
2026-05-05 00:30 77.44182 13.75428 14642 ft 358 kts 21°
2026-05-05 00:30 77.46523 13.79289 14303 ft 357 kts 21°
2026-05-05 00:30 77.48850 13.83161 13970 ft 355 kts 21°
2026-05-05 00:31 77.51167 13.87040 13587 ft 349 kts 21°
2026-05-05 00:31 77.53411 13.90811 13181 ft 338 kts 21°
2026-05-05 00:31 77.55612 13.94529 12686 ft 335 kts 21°
2026-05-05 00:31 77.57794 13.98228 12263 ft 333 kts 21°
2026-05-05 00:32 77.59962 14.01925 11847 ft 332 kts 21°
2026-05-05 00:32 77.62126 14.05605 11547 ft 331 kts 21°
2026-05-05 00:32 77.64292 14.09333 11296 ft 331 kts 21°
2026-05-05 00:32 77.66446 14.13023 11037 ft 330 kts 21°
2026-05-05 00:33 77.68574 14.16686 10798 ft 329 kts 21°
2026-05-05 00:33 77.70718 14.20414 10574 ft 328 kts 21°
2026-05-05 00:33 77.72844 14.24132 10346 ft 321 kts 22°
2026-05-05 00:33 77.74895 14.27696 10157 ft 307 kts 22°
2026-05-05 00:34 77.76851 14.31114 9937 ft 295 kts 22°
2026-05-05 00:34 77.78741 14.34429 9631 ft 285 kts 21°
2026-05-05 00:34 77.80562 14.37615 9283 ft 272 kts 22°
2026-05-05 00:34 77.82323 14.40706 8950 ft 266 kts 22°
2026-05-05 00:35 77.84028 14.43712 8650 ft 257 kts 22°
2026-05-05 00:35 77.85672 14.46634 8419 ft 249 kts 23°
2026-05-05 00:35 77.87285 14.49504 8035 ft 251 kts 24°
2026-05-05 00:35 77.88902 14.52414 7808 ft 244 kts 24°
2026-05-05 00:36 77.90459 14.55202 7667 ft 233 kts 24°
2026-05-05 00:36 77.91941 14.57865 7556 ft 222 kts 24°
2026-05-05 00:36 77.93340 14.60384 7325 ft 216 kts 24°
2026-05-05 00:36 77.94737 14.62904 7014 ft 212 kts 24°
2026-05-05 00:37 77.96112 14.65390 6796 ft 210 kts 25°
2026-05-05 00:37 77.97501 14.67929 6617 ft 215 kts 24°
2026-05-05 00:37 77.98886 14.70455 6349 ft 211 kts 25°
2026-05-05 00:37 78.00246 14.72925 6023 ft 208 kts 25°
2026-05-05 00:38 78.01593 14.75391 5668 ft 206 kts 25°
2026-05-05 00:38 78.02929 14.77857 5404 ft 205 kts 25°
2026-05-05 00:38 78.04266 14.80310 5150 ft 204 kts 25°
2026-05-05 00:38 78.05585 14.82733 5057 ft 202 kts 25°
2026-05-05 00:39 78.06913 14.84449 5041 ft 192 kts
2026-05-05 00:39 78.08234 14.83870 4862 ft 192 kts 357°
2026-05-05 00:39 78.09543 14.82630 4596 ft 191 kts 356°
2026-05-05 00:39 78.10848 14.81409 4350 ft 190 kts 358°
2026-05-05 00:40 78.12142 14.80340 4103 ft 190 kts 358°
2026-05-05 00:40 78.13442 14.79312 3921 ft 189 kts 358°
2026-05-05 00:40 78.14306 14.78579 3960 ft 190 kts 358°
2026-05-05 00:40 78.15608 14.77496 4016 ft 190 kts 358°
2026-05-05 00:41 78.16913 14.76324 3960 ft 190 kts 357°
2026-05-05 00:41 78.18198 14.75228 3687 ft 180 kts 356°
2026-05-05 00:41 78.19374 14.74384 3519 ft 166 kts
2026-05-05 00:41 78.20528 14.75093 3039 ft 168 kts 15°
2026-05-05 00:42 78.21651 14.76166 2773 ft 161 kts 19°
2026-05-05 00:42 78.22669 14.78215 2498 ft 153 kts 30°
2026-05-05 00:42 78.23532 14.80908 2300 ft 144 kts 37°
2026-05-05 00:42 78.24324 14.83782 2025 ft 138 kts 41°
2026-05-05 00:43 78.24946 14.87225 1829 ft 134 kts 54°
2026-05-05 00:43 78.25473 14.90986 1750 ft 134 kts 56°
2026-05-05 00:43 78.25901 14.94988 1440 ft 134 kts 66°
2026-05-05 00:43 78.26195 14.99213 1180 ft 122 kts 73°
2026-05-05 00:44 78.26366 15.03241 1175 ft 123 kts 80°
2026-05-05 00:44 78.26458 15.07605 1221 ft 130 kts 85°
2026-05-05 00:44 78.26419 15.12086 1200 ft 134 kts 94°
2026-05-05 00:44 78.26254 15.16717 1172 ft 139 kts 99°
2026-05-05 00:45 78.25989 15.21216 1072 ft 136 kts 104°
2026-05-05 00:45 78.25714 15.25597 841 ft 132 kts 102°
2026-05-05 00:45 78.25498 15.29954 657 ft 132 kts 101°
2026-05-05 00:45 78.25274 15.34326 472 ft 133 kts 102°
2026-05-05 00:46 78.25023 15.38752 286 ft 131 kts 101°
2026-05-05 00:46 78.24801 15.43078 117 ft 128 kts 102°
2026-05-05 00:46 78.24582 15.46909 95 ft 109 kts 99°
2026-05-05 00:46 78.24353 15.51324 363 ft 146 kts 102°
2026-05-05 00:47 78.24047 15.56362 1086 ft 164 kts 107°
2026-05-05 00:47 78.23602 15.61780 2092 ft 175 kts 108°
2026-05-05 00:47 78.23077 15.67424 2770 ft 191 kts 109°
2026-05-05 00:47 78.22413 15.73534 3314 ft 214 kts 114°
2026-05-05 00:48 78.21589 15.79573 4303 ft 215 kts 118°
2026-05-05 00:48 78.20662 15.85426 4866 ft 221 kts 122°
2026-05-05 00:48 78.19610 15.90973 5046 ft 224 kts 127°
2026-05-05 00:48 78.18458 15.96073 5077 ft 227 kts 133°
2026-05-05 00:49 78.17186 16.00708 5090 ft 232 kts 143°
2026-05-05 00:49 78.15600 16.02957 5104 ft 246 kts 172°
2026-05-05 00:49 78.13901 16.01198 5058 ft 258 kts 205°
2026-05-05 00:49 78.12565 15.95429 5095 ft 260 kts 239°
2026-05-05 00:50 78.11887 15.87389 5083 ft 257 kts 261°
2026-05-05 00:50 78.11530 15.78895 5083 ft 257 kts 262°
2026-05-05 00:50 78.11172 15.70380 5089 ft 258 kts 261°
2026-05-05 00:50 78.10785 15.61936 4965 ft 253 kts 260°
2026-05-05 00:51 78.10383 15.53666 4421 ft 254 kts 259°
2026-05-05 00:51 78.09962 15.45296 4043 ft 255 kts 259°
2026-05-05 00:51 78.09534 15.36999 3972 ft 254 kts 258°
2026-05-05 00:51 78.09099 15.28719 3975 ft 248 kts 259°
2026-05-05 00:52 78.08683 15.20926 3964 ft 234 kts 259°
2026-05-05 00:52 78.08275 15.13312 3972 ft 233 kts 259°
2026-05-05 00:52 78.07867 15.05729 4001 ft 233 kts 258°
2026-05-05 00:52 78.07457 14.98165 3979 ft 233 kts 259°
2026-05-05 00:53 78.07329 14.90543 3969 ft 223 kts 290°
2026-05-05 00:53 78.08058 14.84441 3988 ft 203 kts 331°
2026-05-05 00:53 78.09284 14.81886 3994 ft 188 kts 359°
2026-05-05 00:53 78.10566 14.81227 3998 ft 187 kts
2026-05-05 00:54 78.11861 14.80451 3987 ft 188 kts 359°
2026-05-05 00:54 78.13155 14.79474 3988 ft 188 kts 358°
2026-05-05 00:54 78.14441 14.78424 3987 ft 180 kts 358°
2026-05-05 00:54 78.15585 14.77445 4000 ft 156 kts 359°
2026-05-05 00:55 78.16601 14.76609 3913 ft 142 kts
2026-05-05 00:55 78.17591 14.75971 3861 ft 149 kts
2026-05-05 00:55 78.18670 14.75045 3533 ft 162 kts 355°
2026-05-05 00:55 78.19759 14.74506 3236 ft 153 kts
2026-05-05 00:56 78.20794 14.75274 2938 ft 147 kts 15°
2026-05-05 00:56 78.21750 14.76299 2778 ft 135 kts 21°
2026-05-05 00:56 78.22562 14.78104 2561 ft 128 kts 30°
2026-05-05 00:56 78.23325 14.80290 2355 ft 123 kts 34°
2026-05-05 00:57 78.24027 14.82653 2172 ft 123 kts 38°
2026-05-05 00:57 78.24653 14.85560 2027 ft 130 kts 48°
2026-05-05 00:57 78.25223 14.89180 1869 ft 135 kts 54°
2026-05-05 00:57 78.25712 14.93070 1556 ft 135 kts 60°
2026-05-05 00:58 78.26099 14.97330 1245 ft 136 kts 69°
2026-05-05 00:58 78.26332 15.01702 1092 ft 129 kts 78°
2026-05-05 00:58 78.26453 15.06141 1115 ft 131 kts 84°
2026-05-05 00:58 78.26430 15.10789 1175 ft 141 kts 90°
2026-05-05 00:59 78.26332 15.15473 1143 ft 139 kts 98°
2026-05-05 00:59 78.26048 15.19859 1117 ft 133 kts 106°
2026-05-05 00:59 78.25776 15.24153 951 ft 129 kts 100°
2026-05-05 00:59 78.25586 15.28483 753 ft 130 kts 101°
2026-05-05 01:00 78.25352 15.32822 585 ft 132 kts 102°
2026-05-05 01:00 78.25122 15.37168 366 ft 133 kts 102°
2026-05-05 01:00 78.24887 15.41634 160 ft 137 kts 103°
2026-05-05 01:00 78.24654 15.45912 93 ft 114 kts 107°
2026-05-05 01:01 78.24519 15.48220 96 ft 47 kts 105°
2026-05-05 01:01 78.24476 15.49016 97 ft 18 kts 105°
2026-05-05 01:01 78.24467 15.49239 94 ft 6 kts 89°
2026-05-05 01:01 78.24492 15.49433 96 ft 8 kts 22°
2026-05-05 01:02 78.24550 15.49501 94 ft 0 kts 15°
2026-05-05 01:04 78.24558 15.49500 94 ft 3 kts 349°
2026-05-05 01:04 78.24601 15.49426 94 ft 3 kts 36°
2026-05-05 01:04 78.24609 15.49512 93 ft 2 kts 88°
2026-05-05 01:05 78.24608 15.49539 94 ft 0 kts 96°